Location: Kumla
(59.1265°N, 15.1401°E)
Time: 17:51:39
(UTC+01:00)

A-11 Canister half - Pass Details

Date: 06 December 2023
Orbit: 1512 x 1687 km, 47.2° (Epoch: 25 February)

Event Time Altitude Azimuth Distance (km) Brightness Sun altitude
Rises 06:41:49 0° 280° (W) 4,872 - -12.8°
Exits shadow 06:45:49 - 265° (W) 3,984 10.6 -12.4°
Reaches altitude 10° 06:46:13 10° 263° (W) 3,909 10.6 -12.3°
Maximum altitude 06:52:17 18° 225° (SW) 3,318 10.6 -11.6°
Drops below altitude 10° 06:58:24 10° 187° (S) 3,945 11.4 -10.9°
Sets 07:02:54 0° 171° (S) 4,934 12.2 -10.4°
